Regional Weather Roundup
Issued by NWS

Home | Current Version | Previous Version | Text Only | Print | Product List | Glossary Off
Versions: 1 2 3 4 5 6 7 8 9 10 11 12 13 14 15 16 17 18 19 20 21 22 23 24 25 26 27 28 29 30 31 32 33 34 35 36 37 38 39 40 41 42 43 44 45 46 47 48 49 50

000
ASUS45 KABQ 070701
RWRNM
NEW MEXICO REGIONAL WEATHER ROUNDUP
NATIONAL WEATHER SERVICE ALBUQUERQUE NM
100 AM MDT TUE JUL 07 2015

NOTE: "FAIR" MEANS FEW OR NO CLOUDS BELOW 12,000 FEET AGL WITH NO
       SIGNIFICANT WEATHER OR OBSTRUCTIONS TO VISION.

      THIS PRODUCT IS RELEASED AS TWO VERSIONS.  ONE VERSION NEAR
      THE TOP OF THE HOUR CONTAINING PRELIMINARY DATA FROM ALBUQUERQUE
      AND OTHER STATIONS.  A FINAL VERSION WITH ADDITIONAL DATA IS
      ISSUED ABOUT 10 MINUTES AFTER THE HOUR.

NMZ501-503-504-510>518-070800-
NORTHWEST PLATEAU/NORTHCENTRAL MOUNTAINS

CITY           SKY/WX    TMP DP  RH WIND       PRES   REMARKS
FARMINGTON     PTCLDY    66  56  70 N6        30.15F
SANTA FE       CLOUDY    60  56  86 N7        30.26F
TAOS           CLOUDY    57  46  67 SE13      30.32S

$$
NMZ402-403-502-505>509-070800-
WESTCENTRAL MOUNTAINS/SOUTHWEST MOUNTAINS

CITY           SKY/WX    TMP DP  RH WIND       PRES   REMARKS
GALLUP         PTCLDY    57  54  89 E3        30.25S
SILVER CITY      N/A     66  55  68 N9        30.15F

$$
NMZ407-409-411-412-070800-
SOUTHERN DESERTS

CITY           SKY/WX    TMP DP  RH WIND       PRES   REMARKS
DEMING         PTCLDY    75  58  55 W7        30.05R
ALAMOGORDO     MOCLDY    75  61  60 SE9       30.04R
T OR C         MOCLDY    71  60  68 NE18G30   30.12R

$$
NMZ519>523-070800-
CENTRAL VALLEYS/CENTRAL HIGHLANDS

CITY           SKY/WX    TMP DP  RH WIND       PRES   REMARKS
ALBUQUERQUE    LGT RAIN  68  58  70 E20       30.20R
DOUBLE EAGLE   RAIN      63  59  86 SE8       30.26R
CLINES CORNERS CLOUDY    58  56  93 E16       30.30F
BELEN          CLOUDY    67  58  71 S12       30.21R
SOCORRO        NOT AVBL

$$
NMZ524>526-539-540-070800-
SOUTHCENTRAL MOUNTAINS

CITY           SKY/WX    TMP DP  RH WIND       PRES   REMARKS
RUIDOSO        NOT AVBL

$$
NMZ527>531-070800-
NORTHEAST HIGHLANDS/NORTHEAST PLAINS

CITY           SKY/WX    TMP DP  RH WIND       PRES   REMARKS
LAS VEGAS      LGT RAIN  56  55  97 NE13      30.33S FOG
RATON          CLOUDY    59  56  89 NE8       30.30S
CLAYTON        LGT RAIN  62  58  86 NE16      30.24F FOG

$$
NMZ532>537-070800-
EASTCENTRAL PLAINS

CITY           SKY/WX    TMP DP  RH WIND       PRES   REMARKS
TUCUMCARI      MOCLDY    66  61  84 NE9       30.16S
CANNON AFB     MOCLDY    64  63  94 NE22G30   30.13S
CLOVIS AIRPORT CLOUDY    64  61  88 NE15G25     N/A

$$
NMZ028-029-538-070800-
SOUTHEAST PLAINS

CITY           SKY/WX    TMP DP  RH WIND       PRES   REMARKS
ROSWELL        CLOUDY    72  63  73 N14       30.11R
ARTESIA        DRIZZLE   70  70 100 N17       30.09R
CARLSBAD       CLOUDY    72  68  87 NW18      30.03R
HOBBS          CLOUDY    68  68 100 N13       30.05S


$$


USA.gov is the U.S. government's official web portal to all federal, state and local government web resources and services.